Location: Les Jeannots
(43.2262°N, 5.5774°E)
Time: 08:44:11
(UTC+00:00)

BREEZE-M DEB (TANK) - Pass Details

Date: 05 July 2020
Orbit: 327 x 12050 km, 49.6° (Epoch: 04 August)

Event Time Altitude Azimuth Distance (km) Brightness Sun altitude
Rises 22:33:21 0° 292° (WNW) 3,733 6.9 -22.2°
Reaches altitude 10° 22:36:59 10° 301° (WNW) 1,979 5.6 -22.4°
Maximum altitude 22:40:25 35° 10° (N) 658 3.0 -22.6°
Enters shadow 22:40:39 34° 24° (NNE) 654 2.9 -22.6°
